Weather in Staryy Karazerik

Russia / Republic of Tatarstan     54°45′43″N   53°35′56″E
temp.,
°C
wind,
m/s
gust,
m/s
humid.,
%
clouds,
%
prec.,
mm/h
press.,
hPa
HPBL,
m
4 march, thu
thu400:00−9wnw5119097 0.2 1003298
03:00−11w479485 0.2 1004130
06:00−12sw489518 0.0 1003137
09:00−7sw6129058 0.0 1003489
12:00−5sw71289100 0.1 1001541
15:00−4sw91589100 0.1 999805
18:00−3ssw91889100 0.1 996824
21:000wsw91693100 0.3 995941
5 march, fri
fri500:00−2w51385100 0.8 996639
03:00−4w41287100 0.8 998474
06:00−5w3793100 0.0 999288
09:00−5wnw3593100 0.3 1001416
12:00−4nw3488100 0.2 1002458
15:00−6nw3587100 0.2 1004397
18:00−12wnw238933 0.0 100721
21:00−15w128917 0.0 101020
6 march, sat
sat600:00−16sw22860 0.0 101120
03:00−16ssw23840 0.0 101220
06:00−16ssw33900 0.0 101227
09:00−12ssw369044 0.0 1012235
12:00−7wsw468969 0.0 1011500
15:00−7w349085 0.1 1011559
18:00−10nw1295100 0.1 101021
21:00−13nw4796100 0.2 1011172
7 march, sun
sun700:00−18nw3492100 0.1 101159
03:00−22wnw239778 0.1 101220
06:00−23w229827 0.0 101320
09:00−18w249345 0.0 1014196
12:00−14wsw358829 0.0 1014389
15:00−12ssw478945 0.0 1013425
18:00−16s5119468 0.0 1012237
21:00−13ssw7139076 0.0 1010492
8 march, mon
mon800:00−13s81491100 0.1 1006493
03:00−11s91688100 0.3 1002735
06:00−7ssw91693100 0.3 999909
09:00−8w71375100 1.1 1002715
12:00−6wsw59760 0.0 1005820
15:00−6ssw38830 0.0 1005331
18:00−9se359035 0.0 100285
21:00−5sse6149568 0.3 999625